User: anonymous   Login
Location: Langangen
(59.1000°N, 9.8000°E)
Time: 04:53:35
(UTC+01:00)
Language:

Iridium 60 - Orbit

View from above orbital plane
View from above orbital plane
View from above satellite
View from above satellite

Ground track
Ground track

The orbit data is extracted from the following two-line orbital elements,

1 25276U 98019E   17326.62670147 +.00000217 +00000-0 +70452-4 0  9993
2 25276 086.3996 220.7339 0001979 084.7299 275.4122 14.34217228028564
Epoch (UTC): 22 November 2017 15:02:27
Eccentricity: 0.0001979
inclination: 86.3996°
perigee height: 776 km
apogee height: 779 km
right ascension of ascending node: 220.7339°
argument of perigee: 84.7299°
revolutions per day: 14.34217228
mean anomaly at epoch: 275.4122°
orbit number at epoch: 2856

The dashed part of the orbit path shows where the satellite is in the earth's shadow,  

DLR